Find Starlink 32242

NORAD ID: 60429 Int'l Des: 2024-144 Owner: SPXS Country: US Constellation: starlink operational
LEOCIRCULAR

Live Position

Loading 3D Globe...

About Starlink 32242

Description loading...

Upcoming Passes

Passes for default location (London). Set your location on the main map for personalized predictions.

Altitude History

Loading altitude history...

Two-Line Element Set

1 60429U 24144E 26123.85844716 .00000533 00000-0 30137-4 0 9992
2 60429 53.1614 321.0288 0001197 97.8751 262.2385 15.30189444 97791
Epoch: May 3, 2026 • Age: 6 hours

Current Status

Altitude 494.1 km
Velocity 7.62 km/s
Sub-Earth Point -52.05°S, 12.81°W
Launch Date Aug 12, 2024
Age 1.7 years
Type internet

Technical Details

Classification Payload
Mass 730.00 kg
Dry Mass 700.00 kg
Total Mass 730.00 kg
Length 0.30 m
Diameter 4.10 m
Span 29.00 m
Shape Box + pan
Manufacturer SPXS
Bus Type Starlink V2M
Phase Status In Orbit
Owner/State SPXS/US

Most Searched